This is the latest recevied weather packets stored in our database for station/object KY0TEQ-13. If no packets are shown the sender has not sent any weather packets the latest 10 day(s).
| Time | Temp. | Humidity | Pressure | Rain* | Wind** | Luminosity | Snow |
|---|---|---|---|---|---|---|---|
| 1788029318 | 25.56° C | 34% | 1312.2 hPa | 0 mm | - | 872 W/m² | - |
| 1788029017 | 26.11° C | 35% | 1312.3 hPa | 0 mm | - | 773 W/m² | - |
| 1788028716 | 25.56° C | 35% | 1312.2 hPa | 0 mm | - | 744 W/m² | - |
| 1788028410 | 25° C | 36% | 1312.3 hPa | 0 mm | - | 465 W/m² | - |
| 1788028107 | 25° C | 36% | 1312.3 hPa | 0 mm | - | 636 W/m² | - |
| 1788027801 | 25° C | 36% | 1312.3 hPa | 0 mm | - | 694 W/m² | - |
| 1788027500 | 25° C | 37% | 1312.4 hPa | 0 mm | - | 341 W/m² | - |
| 1788027190 | 23.89° C | 37% | 1312.7 hPa | 0 mm | - | 589 W/m² | - |
| 1788026889 | 24.44° C | 37% | 1312.8 hPa | 0 mm | - | 258 W/m² | - |
| 1788026584 | 23.89° C | 37% | 1312.8 hPa | 0 mm | - | 243 W/m² | - |
| 1788026278 | 23.89° C | 40% | 1312.5 hPa | 0 mm | - | 187 W/m² | - |
| 1788025974 | 23.89° C | 37% | 1312.2 hPa | 0 mm | - | 147 W/m² | - |
| 1788025673 | 25° C | 35% | 1312.3 hPa | 0 mm | - | 160 W/m² | - |
| 1788025367 | 25° C | 34% | 1312.2 hPa | 0 mm | - | 223 W/m² | - |
| 1788025063 | 26.11° C | 33% | 1312.3 hPa | 0 mm | - | 270 W/m² | - |
| 1788024756 | 26.11° C | 33% | 1312.1 hPa | 0 mm | - | 384 W/m² | - |
| 1788024452 | 26.11° C | 31% | 1311.9 hPa | 0 mm | - | 506 W/m² | - |
| 1788024147 | 25.56° C | 33% | 1312.4 hPa | 0 mm | - | 484 W/m² | - |
| 1788023843 | 25.56° C | 33% | 1312.1 hPa | 0 mm | - | 357 W/m² | - |
| 1788023538 | 25° C | 34% | 1312.2 hPa | 0 mm | - | 609 W/m² | - |
| 1788023233 | 25° C | 35% | 1312.1 hPa | 0 mm | - | 531 W/m² | - |
| 1788022933 | 25.56° C | 35% | 1312.1 hPa | 0 mm | - | 379 W/m² | - |
| 1788022629 | 25.56° C | 34% | 1312.2 hPa | 0 mm | - | 645 W/m² | - |
| 1788022319 | 24.44° C | 36% | 1312.1 hPa | 0 mm | - | 655 W/m² | - |
| 1788022018 | 23.89° C | 37% | 1312.4 hPa | 0 mm | - | 422 W/m² | - |
* Rain latest hour (hover to see other rain measurements)
** Current wind speed in m/s (hover to see current wind gust speed)